Location: Musocco
(45.5000°N, 9.1333°E)
Time: 01:52:45
(UTC+00:00)

Daily predictions for brighter satellites

Satellite Brightness Start Highest point End
(mag) Time Altitude Azimuth Time Altitude Azimuth Time Altitude Azimuth
USA 215 4.5 02:52:25 10° NE 02:55:54 34° NE 02:55:54 34° NE
USA 267 4.2 03:25:22 10° SE 03:29:01 35° SSE 03:29:01 35° SSE
Cosmos 2278 Rocket 3.9 03:36:40 23° SSE 03:36:40 23° SSE 03:38:41 10° SSE
Cosmos 2219 Rocket 4.1 03:41:53 19° N 03:41:53 19° N 03:43:28 10° NNE
Cosmos 2237 Rocket 2.8 03:43:07 52° ENE 03:43:07 52° ENE 03:47:39 10° NNE
CZ-2C R/B 4.2 03:44:59 12° SE 03:44:59 12° SE 03:45:24 10° SE
BREEZE-M DEB (TANK) 3.8 03:55:50 61° WNW 03:57:27 89° NNE 04:01:42 10° ESE
Cosmos 1513 Rocket 4.4 03:57:03 77° SSE 03:57:31 84° E 04:03:44 10° N
Cosmos 2333 Rocket 4.0 04:04:35 19° N 04:04:35 19° N 04:06:27 10° N
Lacrosse 4 Rocket 2.7 04:04:26 41° E 04:04:26 41° E 04:07:48 10° NE
FENGYUN 3A 4.3 04:01:08 10° NNE 04:04:53 46° N 04:04:53 46° N
Cosmos 1891 Rocket 4.3 04:10:02 76° NW 04:10:02 76° NW 04:15:50 10° N
Cosmos 1464 Rocket 3.8 04:13:46 61° SSW 04:14:53 78° W 04:21:06 10° N
Cosmos 841 Rocket 3.9 04:16:53 51° N 04:16:53 51° N 04:20:49 10° NNE
Gbstr 26 Del rocket 4.3 04:13:50 56° WSW 04:15:43 89° SSE 04:23:53 10° ENE
Cosmos 1980 3.7 04:17:06 62° NNW 04:17:06 62° NNW 04:22:05 10° NNE
MOS 1 Rocket 4.3 04:13:54 10° SE 04:18:30 45° ENE 04:22:51 10° N
Meteor 1-21 Rocket 4.1 04:17:53 33° NNW 04:20:41 85° W 04:26:33 10° S
Meteor 2-13 Rocket 4.3 04:15:22 10° N 04:21:35 89° WSW 04:27:43 10° S
Cosmos 1072 Rocket 4.4 04:22:08 61° WSW 04:22:37 63° W 04:28:56 10° N
FALCON 9 R/B 4.2 04:24:55 12° SSW 04:24:55 12° SSW 04:25:35 10° S
COSMOS 2428 4.2 04:25:09 23° NNW 04:25:09 23° NNW 04:27:51 10° N
SKYMED 2 3.9 04:18:42 10° SSE 04:22:59 65° ENE 04:23:56 49° NNE
Atlas Centaur 2 4.2 04:26:50 20° SSW 04:29:00 23° S 04:35:01 10° SE
ATLAS CENTAUR R/B 2.1 04:31:44 40° NE 04:31:44 40° NE 04:34:12 10° NE
METEOR-M 4.0 04:28:24 10° N 04:33:42 64° WNW 04:34:33 55° WSW
Cosmos 1689 Rocket 4.0 04:32:41 10° SE 04:35:13 28° ENE 04:35:31 27° ENE
Cosmos 2150 Rocket 4.2 04:33:50 21° NNW 04:37:28 73° ENE 04:42:52 10° SSE
Lacrosse 5 rocket 3.6 04:40:11 13° S 04:40:11 13° S 04:40:40 10° S
Cosmos 2084 Rocket 3.4 04:37:18 75° NNW 04:37:40 88° NE 04:42:12 10° SE
Cosmos 1092 Rocket 4.1 04:32:30 10° N 04:38:41 74° E 04:44:51 10° SSE
Cosmos 1340 3.9 04:42:00 30° S 04:42:00 30° S 04:44:00 10° S
Cosmos 372 Rocket 4.0 04:40:33 55° W 04:40:40 55° WSW 04:45:45 10° S
ALOS 4.2 04:36:40 10° N 04:37:53 17° N 04:37:53 17° N
USA 215 4.0 04:35:29 10° NE 04:41:19 36° NNW 04:43:16 30° NW
Cosmos 1602 Rocket 3.5 04:40:25 25° N 04:42:59 89° W 04:47:28 10° S
BREEZE-M DEB (TANK) 4.2 04:44:16 19° NE 04:44:16 19° NE 04:45:10 10° ENE
GEOS 3 Rocket 4.5 04:37:58 10° ESE 04:43:07 49° NE 04:46:52 19° NNW
ADEOS 3.5 04:38:55 10° N 04:44:05 63° WNW 04:47:41 20° SSW
USA 307 2.7 04:44:42 75° W 04:45:02 83° NNW 04:49:17 10° NE
YAOGAN 6 4.5 04:41:54 10° NNE 04:45:16 32° E 04:48:36 10° SSE
NOSS 0 Rocket 4.3 04:45:40 39° WNW 04:46:03 40° NW 04:51:50 10° NNE
FALCON 9 DEB 4.0 04:46:55 38° SSE 04:47:05 38° SE 04:50:00 10° ENE
Cosmos 1328 3.6 04:46:59 43° N 04:48:12 90° W 04:52:06 10° S
Nadezhda 4 Rocket 3.9 04:43:08 10° NNW 04:49:07 58° W 04:55:06 10° S
BREEZE-M (TANK) 3.6 04:52:16 21° SE 04:52:16 21° SE 04:53:02 10° SE
USA 305 2.7 04:50:49 63° W 04:51:20 73° NNW 04:55:35 10° NE
Cosmos 1400 Rocket 2.8 04:53:19 53° WSW 04:53:57 61° WNW 04:58:04 10° N
USA 308 2.8 04:53:18 57° W 04:54:02 73° NNW 04:58:19 10° NE
Cosmos 2098 Rocket 4.0 04:48:52 10° N 04:54:30 58° ENE 04:58:54 10° SSE
SL-4 R/B 1.8 04:55:30 60° NW 04:55:44 61° NNW 04:59:43 10° ENE
FALCON 9 DEB 4.0 04:55:02 34° S 04:55:46 40° SE 04:58:44 10° ENE
Cosmos 1943 Rocket 2.6 04:51:10 11° NNW 04:56:32 64° ENE 05:02:10 10° SE
Cosmos 2034 Rocket 4.1 04:50:20 10° SSW 04:56:33 54° WNW 05:02:47 10° N
Meteor 1-16 Rocket 4.3 04:51:42 10° SSW 04:57:33 59° WNW 05:03:25 10° N
Cosmos 1570 Rocket 4.3 04:57:36 39° W 04:58:14 41° WNW 05:03:13 10° N
Cosmos 1825 Rocket 4.3 04:54:06 10° N 04:58:30 54° ENE 05:02:52 10° SSE
CZ-4B R/B 3.9 04:57:01 10° SSW 04:57:25 13° SSW 04:57:25 13° SSW
CZ-2C R/B 4.0 04:56:15 10° SE 05:01:05 39° ENE 05:06:03 10° N
Cosmos 540 Rocket 4.3 05:01:40 29° NW 05:01:40 29° NW 05:05:38 10° N
SJ-12 4.0 04:58:20 10° N 05:02:21 50° WNW 05:04:12 28° SW
USA 306 2.9 05:02:36 46° W 05:03:37 62° NNW 05:07:50 10° NE
Cosmos 2298 Rocket 4.0 05:00:29 20° NNW 05:04:09 64° WSW 05:09:24 10° S
Cosmos 1814 Rocket 4.4 05:03:50 35° W 05:04:55 39° WNW 05:09:44 10° N
NOSS 3-2 (A) 3.3 05:00:28 17° SW 05:04:59 77° NW 05:11:32 10° NE
Envisat 3.4 05:01:33 10° NNE 05:06:37 64° ESE 05:11:38 10° S
Cosmos 1634 Rocket 4.0 05:00:37 10° S 05:06:47 87° E 05:13:01 10° N
Cosmos 2369 Rocket 3.1 05:01:29 10° NNW 05:06:54 46° ENE 05:12:15 10° SE
Cosmos 1125 Rocket 3.5 05:01:52 11° NNW 05:06:58 86° WSW 05:12:17 10° SSE
COSMO-SKYMED 1 3.0 05:07:03 10° SSW 05:11:08 39° W 05:12:33 30° NW
CZ-4B R/B 2.6 05:07:50 10° N 05:11:27 58° WNW 05:15:10 10° SSW
PSLV R/B 3.8 05:09:02 10° S 05:13:09 69° WSW 05:17:20 10° NNW
Cosmos 2278 Rocket 4.0 05:18:36 13° SW 05:18:36 13° SW 05:19:45 10° SW
Cosmos 2228 3.0 05:12:47 10° S 05:17:01 80° E 05:21:16 10° N
SL-16 R/B 2.1 05:12:22 10° SW 05:17:59 66° WNW 05:23:40 10° NNE
NOSS 3-2 (C) 3.4 05:12:58 10° SSW 05:18:35 83° SE 05:25:04 10° NE
CZ-2C R/B 3.5 05:19:17 12° SW 05:21:09 15° SSW 05:23:36 10° SSE
ERBS 3.3 05:18:31 10° SSW 05:21:40 44° SE 05:24:48 10° ENE
Cosmos 972 Rocket 4.3 05:16:09 10° SSW 05:22:20 59° WNW 05:27:52 10° NNE
Cosmos 2219 Rocket 4.1 05:23:36 11° NNW 05:23:36 11° NNW 05:25:08 10° NNW
ERS-2 2.7 05:20:26 10° SSW 05:23:48 36° W 05:25:09 26° NW
Cosmos 1953 Rocket 3.9 05:19:30 10° N 05:23:50 66° E 05:28:09 10° SSE
Cosmos 2026 Rocket 4.0 05:18:35 10° NNW 05:24:54 66° W 05:31:12 10° S
CENTAUR R/B 2.5 05:19:57 10° SW 05:25:51 85° NW 05:32:57 10° NE
ATLAS 5 CENTAUR R/B 3.5 05:25:47 16° SW 05:26:17 16° SW 05:29:28 10° S
Cosmos 2237 Rocket 3.2 05:24:59 22° WNW 05:26:32 25° NW 05:31:12 10° N
H-2A R/B 2.8 05:24:50 10° N 05:28:26 47° WNW 05:32:03 10° SSW
FALCON 9 DEB 2.8 05:30:00 20° SW 05:32:04 87° SSE 05:35:13 10° ENE
Meteor PRIRODA 4.2 05:29:45 10° N 05:33:03 33° WNW 05:36:20 10° SW
Cosmos 1606 Rocket 3.4 05:29:10 10° SSW 05:33:28 77° W 05:37:49 10° N
Cosmos 1455 4.3 05:33:57 10° SSE 05:37:13 30° E 05:40:32 10° NNE
NOAA 6 4.1 05:32:22 10° NNE 05:37:36 85° ESE 05:42:47 10° SSW
FALCON 9 DEB 2.8 05:38:25 18° WSW 05:40:34 71° NNW 05:43:41 10° NE
Lacrosse 4 Rocket 2.7 05:40:48 18° W 05:42:32 23° NW 05:46:05 10° N
Cosmos 1300 3.1 05:41:54 10° SW 05:45:28 38° WNW 05:49:04 10° N
Cosmos 1315 Rocket 3.1 05:46:21 10° SSW 05:50:02 41° WNW 05:53:47 10° N
[s.n.47389] 2.9 05:49:01 10° SW 05:51:34 59° SE 05:54:07 10° ENE
[s.n.47399] 2.9 05:49:03 10° SW 05:51:36 59° SE 05:54:09 10° ENE
[s.n.47393] 2.9 05:49:05 10° SW 05:51:38 59° SE 05:54:11 10° ENE
[s.n.47353] 2.9 05:49:10 10° SW 05:51:42 59° SE 05:54:15 10° ENE
[s.n.47355] 2.9 05:49:12 10° SW 05:51:46 59° SE 05:54:19 10° ENE
[s.n.47365] 2.9 05:49:15 10° SW 05:51:48 59° SE 05:54:23 10° ENE
[s.n.47383] 2.9 05:49:20 10° SW 05:51:53 59° SE 05:54:27 10° ENE
[s.n.47400] 2.9 05:49:20 10° SW 05:51:55 60° SE 05:54:31 10° ENE
[s.n.47378] 2.9 05:49:26 10° SW 05:51:58 59° SE 05:54:33 10° ENE
[s.n.47395] 2.9 05:49:29 10° SW 05:52:01 59° SE 05:54:35 10° ENE
[s.n.47379] 2.9 05:49:35 10° SW 05:52:08 60° SE 05:54:42 10° ENE
[s.n.47370] 2.9 05:49:36 10° SW 05:52:08 60° SE 05:54:42 10° ENE
[s.n.47351] 2.9 05:49:37 10° SW 05:52:11 60° SE 05:54:48 10° ENE
[s.n.47394] 2.9 05:49:42 10° SW 05:52:15 60° SE 05:54:49 10° ENE
[s.n.47354] 2.9 05:49:46 10° SW 05:52:18 60° SE 05:54:52 10° ENE
[s.n.47360] 2.9 05:49:48 10° SW 05:52:20 60° SE 05:54:54 10° ENE
[s.n.47369] 2.9 05:49:53 10° SW 05:52:26 60° SE 05:54:59 10° ENE
[s.n.47406] 2.9 05:49:55 10° SW 05:52:28 60° SE 05:55:02 10° ENE
[s.n.47384] 2.9 05:49:58 10° SW 05:52:31 60° SE 05:55:05 10° ENE
[s.n.47356] 2.9 05:50:01 10° SW 05:52:34 60° SE 05:55:08 10° ENE
[s.n.47407] 2.9 05:50:04 10° SW 05:52:37 60° SE 05:55:12 10° ENE
[s.n.47385] 2.9 05:50:04 10° SW 05:52:39 61° SE 05:55:17 10° ENE
[s.n.47358] 2.9 05:50:12 10° SW 05:52:44 61° SE 05:55:18 10° ENE
[s.n.47398] 2.9 05:50:14 10° SW 05:52:47 61° SE 05:55:21 10° ENE
[s.n.47361] 2.9 05:50:18 10° SW 05:52:51 61° SE 05:55:25 10° ENE
[s.n.47392] 2.9 05:50:19 10° SW 05:52:52 61° SE 05:55:27 10° ENE
[s.n.47382] 2.9 05:50:23 10° SW 05:52:57 61° SE 05:55:31 10° ENE
[s.n.47359] 2.9 05:50:24 10° SW 05:52:59 61° SE 05:55:35 10° ENE
[s.n.47401] 2.8 05:50:31 10° SW 05:53:04 61° SE 05:55:38 10° ENE
[s.n.47380] 2.9 05:50:30 10° SW 05:53:05 62° SE 05:55:42 10° ENE
[s.n.47386] 2.8 05:50:37 10° SW 05:53:11 61° SE 05:55:45 10° ENE
[s.n.47408] 2.9 05:50:37 10° SW 05:53:13 62° SE 05:55:50 10° ENE
[s.n.47396] 2.8 05:50:43 10° SW 05:53:17 61° SE 05:55:51 10° ENE
[s.n.47391] 2.8 05:50:45 10° SW 05:53:19 62° SE 05:55:54 10° ENE
[s.n.47402] 2.8 05:50:49 10° SW 05:53:23 62° SE 05:55:56 10° ENE
[s.n.47404] 2.8 05:50:52 10° SW 05:53:26 62° SE 05:56:00 10° ENE
[s.n.47403] 2.8 05:50:55 10° SW 05:53:29 62° SE 05:56:03 10° ENE
[s.n.47381] 2.8 05:50:59 10° SW 05:53:33 62° SE 05:56:06 10° ENE
[s.n.47372] 2.8 05:51:03 10° SW 05:53:36 62° SE 05:56:10 10° ENE
[s.n.47405] 2.8 05:51:05 10° SW 05:53:38 62° SE 05:56:13 10° ENE
[s.n.47368] 2.8 05:51:11 10° SW 05:53:43 62° SE 05:56:18 10° ENE
Cosmos 1655 Rocket 4.1 05:47:25 10° N 05:53:44 83° E 06:00:03 10° S
[s.n.47350] 2.8 05:51:13 10° SW 05:53:46 62° SE 05:56:20 10° ENE
[s.n.47349] 2.8 05:51:12 10° SW 05:53:48 63° SE 05:56:25 10° ENE
[s.n.47367] 2.8 05:51:17 10° SW 05:53:51 63° SE 05:56:26 10° ENE
[s.n.47373] 2.8 05:51:19 10° SW 05:53:54 63° SE 05:56:32 10° ENE
[s.n.47377] 2.8 05:51:21 10° SW 05:53:58 63° SE 05:56:35 10° ENE
[s.n.47371] 2.8 05:51:24 10° SW 05:54:00 63° SE 05:56:38 10° ENE
[s.n.47362] 2.8 05:51:27 10° SW 05:54:03 63° SE 05:56:40 10° ENE
[s.n.47363] 2.8 05:51:31 10° SW 05:54:07 63° SE 05:56:44 10° ENE
[s.n.47374] 2.8 05:51:36 10° SW 05:54:10 63° SE 05:56:47 10° ENE
[s.n.47357] 2.8 05:51:40 10° SW 05:54:14 63° SE 05:56:50 10° ENE
[s.n.47390] 2.8 05:51:44 10° SW 05:54:18 63° SE 05:56:53 10° ENE
[s.n.47387] 2.8 05:51:47 10° SW 05:54:20 63° SE 05:56:55 10° ENE
[s.n.47375] 2.8 05:51:47 10° SW 05:54:21 63° SE 05:56:56 10° ENE
[s.n.47376] 2.8 05:51:47 10° SW 05:54:23 64° SE 05:57:01 10° ENE
[s.n.47366] 2.8 05:51:57 10° SW 05:54:31 64° SE 05:57:06 10° ENE
[s.n.47352] 2.8 05:51:59 10° SW 05:54:34 64° SE 05:57:10 10° ENE
[s.n.47364] 2.8 05:52:03 10° SW 05:54:38 64° SE 05:57:14 10° ENE
[s.n.47388] 2.8 05:52:06 10° SW 05:54:41 64° SE 05:57:17 10° ENE
[s.n.47397] 2.8 05:52:12 10° SW 05:54:46 64° SSE 05:57:21 10° ENE
PAYLOAD B 4.3 05:50:29 10° NNE 05:56:06 87° WNW 06:01:43 10° SSW
Cosmos 1346 Rocket 3.9 05:55:25 10° NW 05:58:38 24° W 06:01:50 10° SW
ATLAS 3B R/B 4.0 05:52:52 10° S 05:58:57 43° ESE 06:05:11 10° NE
USA 238 DEB 3.9 05:54:37 10° WSW 06:00:58 48° NW 06:07:40 10° NNE
USA 238 3.9 05:54:43 10° WSW 06:01:05 48° NW 06:07:46 10° NNE
Cosmos 783 Rocket 4.5 05:57:53 10° SSW 06:03:04 86° WNW 06:08:18 10° NNE
NOAA 12 4.1 05:59:19 10° NNE 06:04:37 80° WNW 06:09:56 10° SSW
Cosmos 1689 Rocket 4.0 06:05:02 10° WSW 06:06:19 12° W 06:07:23 11° WNW
ATLAS CENTAUR R/B 3.0 06:07:58 10° WNW 06:09:55 14° NW 06:11:53 10° N
Cosmos 1441 Rocket 3.2 06:06:24 10° N 06:10:21 89° WNW 06:14:15 10° S
BREEZE M DEB (TANK) 2.1 06:12:19 10° WSW 06:14:44 73° NNW 06:20:28 10° ENE
SL-19 R/B 4.3 06:11:11 10° N 06:14:44 44° WNW 06:17:50 10° SW
FengYun 1-2 T 4.4 06:09:53 10° NNE 06:15:35 89° ESE 06:21:15 10° SSW
MOS 1-B 4.4 06:12:04 10° N 06:17:44 58° WNW 06:23:22 10° SSW
Cosmos 1726 Rocket 4.2 06:13:57 10° SW 06:17:51 33° WNW 06:21:47 10° N
YAOGAN 6 4.0 06:15:49 10° NNW 06:18:32 19° WNW 06:21:13 10° WSW
Cosmos 1892 3.1 06:15:31 10° NNW 06:19:11 44° W 06:22:51 10° SSW
Spot 2 4.4 06:15:37 10° N 06:19:24 39° WNW 06:23:14 10° SW
Cosmos 1184 Rocket 2.9 06:16:29 10° N 06:19:46 78° E 06:23:01 10° SSE
Cosmos 2058 Rocket 3.2 06:15:30 10° SSW 06:19:47 51° WNW 06:24:08 10° N
Cosmos 1603 3.7 06:15:32 10° SSW 06:21:09 76° WNW 06:26:50 10° NNE
GEOS 3 Rocket 4.4 06:16:17 10° S 06:21:13 37° WSW 06:26:13 10° NW
USA 215 4.2 06:17:38 10° ENE 06:23:20 34° N 06:29:04 10° NW
